Weather History for KUTA - March, 2014

Change the Weather History Date:

Thursday, March 27, 2014

  Actual Average (KMEM) Record (KMEM)
Temperature  
Mean Temperature 57 °F 57 °F  
Max Temperature 68 °F 67 °F 85 °F (1910)
Min Temperature 46 °F 47 °F 22 °F (1955)
Degree Days  
Heating Degree Days 8 9  
Month to date heating degree days 326  
Since 1 July heating degree days 2776  
Cooling Degree Days 0 1  
Month to date cooling degree days 12  
Year to date cooling degree days 15  
Growing Degree Days 7 (Base 50)    
Moisture  
Dew Point 44 °F    
Average Humidity 63    
Maximum Humidity 88    
Minimum Humidity 44    
Precipitation  
Precipitation 0.11 in 0.17 in 2.20 in (1994)
Month to date precipitation 4.43  
Year to date precipitation 12.80  
Snow  
Snow 0.00 in 0.00 in T in (1937)
Month to date snowfall 0.4  
Since 1 July snowfall 3.8  
Snow Depth -    
Sea Level Pressure  
Sea Level Pressure 29.96 in    
Wind  
Wind Speed 15 mph (SSE)    
Max Wind Speed 28 mph    
Max Gust Speed 36 mph    
Visibility 10 miles    
Events Rain , Thunderstorm    
T = Trace of Precipitation, MM = Missing Value Source: NWS Daily Summary

Daily Weather History Graph

Daily Weather History Graph

Search for Another Location

Airport or City:

Trip Planner

Search our weather history database for the weather conditions in past years. The results will help you decide how hot, cold, wet, or windy it might be!

Date:

Astronomy

Mar. 27, 2014 Rise Set
Actual Time 6:55 AM CDT 7:18 PM CDT
Civil Twilight 6:30 AM CDT 7:43 PM CDT
Nautical Twilight 6:00 AM CDT 8:13 PM CDT
Astronomical Twilight 5:30 AM CDT 8:43 PM CDT
Moon 4:38 AM CDT (3/27) 4:13 PM CDT (3/27)
Length of Visible Light 13h 13m
Length of Day
12h 23m
Waning Crescent, 13% of the Moon is Illuminated
Mar 27
Waning Crescent
Mar 30
New
Apr 7
First Quarter
Apr 15
Full
Apr 22
Last Quarter

Hourly Weather History & Observations

Time (CDT) Temp. Windchill Dew Point Humidity Pressure Visibility Wind Dir Wind Speed Gust Speed Precip Events Conditions
12:15 AM 51.8 °F - 30.2 °F 44% 30.12 in 10.0 mi SSE 13.8 mph - N/A   Mostly Cloudy
12:35 AM 50.0 °F - 30.2 °F 47% 30.11 in 10.0 mi SSE 11.5 mph - N/A   Mostly Cloudy
12:55 AM 50.0 °F - 30.2 °F 47% 30.11 in 10.0 mi SSE 12.7 mph - N/A   Mostly Cloudy
1:15 AM 50.0 °F - 32.0 °F 50% 30.09 in 10.0 mi SSE 12.7 mph - N/A   Scattered Clouds
1:35 AM 50.0 °F - 32.0 °F 50% 30.08 in 10.0 mi SSE 10.4 mph - N/A   Clear
1:55 AM 50.0 °F - 32.0 °F 50% 30.08 in 10.0 mi SSE 11.5 mph - N/A   Scattered Clouds
2:15 AM 50.0 °F - 32.0 °F 50% 30.08 in 10.0 mi South 12.7 mph - N/A   Scattered Clouds
2:35 AM 50.0 °F - 32.0 °F 50% 30.07 in 10.0 mi SSE 12.7 mph - N/A   Scattered Clouds
2:55 AM 50.0 °F - 32.0 °F 50% 30.07 in 10.0 mi SSE 11.5 mph - N/A   Scattered Clouds
3:15 AM 50.0 °F - 32.0 °F 50% 30.06 in 10.0 mi SSE 11.5 mph - N/A   Mostly Cloudy
3:35 AM 50.0 °F - 32.0 °F 50% 30.06 in 10.0 mi SSE 10.4 mph - N/A   Mostly Cloudy
3:55 AM 50.0 °F - 32.0 °F 50% 30.05 in 10.0 mi South 12.7 mph - N/A   Overcast
4:15 AM 50.0 °F - 32.0 °F 50% 30.04 in 10.0 mi SSE 12.7 mph - N/A   Mostly Cloudy
4:35 AM 50.0 °F - 32.0 °F 50% 30.05 in 10.0 mi SSE 12.7 mph - N/A   Mostly Cloudy
4:55 AM 50.0 °F - 32.0 °F 50% 30.05 in 10.0 mi South 11.5 mph - N/A   Overcast
5:15 AM 50.0 °F - 32.0 °F 50% 30.05 in 10.0 mi South 13.8 mph - N/A   Overcast
5:35 AM 50.0 °F - 32.0 °F 50% 30.05 in 10.0 mi South 17.3 mph 25.3 mph N/A   Light Drizzle
5:55 AM 48.2 °F - 35.6 °F 62% 30.06 in 10.0 mi South 17.3 mph 23.0 mph N/A Rain Light Rain
6:15 AM 48.2 °F - 33.8 °F 58% 30.07 in 10.0 mi South 16.1 mph 21.9 mph N/A   Mostly Cloudy
6:35 AM 46.4 °F 40.4 °F 35.6 °F 66% 30.06 in 10.0 mi SSE 13.8 mph 21.9 mph N/A Rain Rain
6:55 AM 46.4 °F 40.1 °F 35.6 °F 66% 30.06 in 10.0 mi SSE 15.0 mph - N/A   Mostly Cloudy
7:15 AM 46.4 °F 40.4 °F 35.6 °F 66% 30.06 in 10.0 mi SSE 13.8 mph - N/A   Mostly Cloudy
7:35 AM 48.2 °F - 35.6 °F 62% 30.07 in 10.0 mi SSE 12.7 mph - N/A   Overcast
7:55 AM 48.2 °F - 35.6 °F 62% 30.07 in 10.0 mi SSE 15.0 mph - N/A   Overcast
8:15 AM 48.2 °F - 35.6 °F 62% 30.06 in 10.0 mi SSE 17.3 mph - N/A   Overcast
8:35 AM 50.0 °F - 35.6 °F 58% 30.06 in 10.0 mi SSE 19.6 mph 25.3 mph N/A   Mostly Cloudy
8:55 AM 50.0 °F - 35.6 °F 58% 30.06 in 10.0 mi SSE 19.6 mph - N/A   Mostly Cloudy
9:15 AM 51.8 °F - 37.4 °F 58% 30.06 in 10.0 mi SSE 18.4 mph 25.3 mph N/A   Overcast
9:35 AM 53.6 °F - 39.2 °F 58% 30.04 in 10.0 mi SSE 20.7 mph 27.6 mph N/A   Mostly Cloudy
9:55 AM 53.6 °F - 39.2 °F 58% 30.04 in 10.0 mi SSE 18.4 mph 28.8 mph N/A   Mostly Cloudy
10:15 AM 53.6 °F - 41.0 °F 62% 30.03 in 10.0 mi SSE 21.9 mph 27.6 mph N/A   Scattered Clouds
10:35 AM 53.6 °F - 42.8 °F 67% 30.03 in 10.0 mi SSE 19.6 mph 27.6 mph N/A   Mostly Cloudy
10:55 AM 55.4 °F - 42.8 °F 63% 30.03 in 10.0 mi SSE 20.7 mph 25.3 mph N/A   Mostly Cloudy
11:15 AM 57.2 °F - 44.6 °F 63% 30.02 in 10.0 mi SSE 23.0 mph 27.6 mph N/A   Mostly Cloudy
11:35 AM 60.8 °F - 44.6 °F 55% 30.01 in 10.0 mi SSE 21.9 mph 28.8 mph N/A   Scattered Clouds
11:55 AM 60.8 °F - 44.6 °F 55% 30.00 in 10.0 mi South 19.6 mph 28.8 mph N/A   Scattered Clouds
12:15 PM 62.6 °F - 44.6 °F 52% 29.99 in 10.0 mi SSE 24.2 mph 31.1 mph N/A   Scattered Clouds
12:35 PM 64.4 °F - 46.4 °F 52% 29.98 in 10.0 mi SSE 24.2 mph 29.9 mph N/A   Scattered Clouds
12:55 PM 64.4 °F - 46.4 °F 52% 29.96 in 10.0 mi SSE 26.5 mph 31.1 mph N/A   Scattered Clouds
1:15 PM 64.4 °F - 46.4 °F 52% 29.95 in 10.0 mi South 20.7 mph 29.9 mph N/A   Scattered Clouds
1:35 PM 66.2 °F - 46.4 °F 49% 29.93 in 10.0 mi South 25.3 mph 32.2 mph N/A   Mostly Cloudy
1:55 PM 66.2 °F - 46.4 °F 49% 29.92 in 10.0 mi South 23.0 mph 34.5 mph N/A   Mostly Cloudy
2:15 PM 68.0 °F - 46.4 °F 46% 29.90 in 10.0 mi South 21.9 mph 31.1 mph N/A Thunderstorm Overcast
2:35 PM 66.2 °F - 48.2 °F 52% 29.87 in 10.0 mi South 27.6 mph 35.7 mph N/A   Mostly Cloudy
2:55 PM 66.2 °F - 48.2 °F 52% 29.89 in 10.0 mi South 19.6 mph 31.1 mph N/A   Mostly Cloudy
3:15 PM 66.2 °F - 50.0 °F 56% 29.86 in 10.0 mi South 25.3 mph 31.1 mph N/A Thunderstorm Overcast
3:35 PM 66.2 °F - 50.0 °F 56% 29.85 in 10.0 mi SSE 21.9 mph 27.6 mph N/A   Mostly Cloudy
3:55 PM 66.2 °F - 50.0 °F 56% 29.84 in 10.0 mi SSE 18.4 mph 25.3 mph N/A Rain , Thunderstorm Light Thunderstorms and Rain
4:15 PM 66.2 °F - 50.0 °F 56% 29.79 in 10.0 mi SE 20.7 mph 26.5 mph N/A   Overcast
4:35 PM 66.2 °F - 50.0 °F 56% 29.79 in 10.0 mi SSE 18.4 mph 29.9 mph N/A Thunderstorm Unknown
4:55 PM 64.4 °F - 51.8 °F 64% 29.80 in 10.0 mi South 20.7 mph 32.2 mph 0.01 in Rain , Thunderstorm Light Thunderstorms and Rain
5:15 PM 62.6 °F - 53.6 °F 72% 29.82 in 10.0 mi ENE 3.5 mph - N/A Thunderstorm Thunderstorm
5:35 PM 64.4 °F - 55.4 °F 73% 29.78 in 10.0 mi South 16.1 mph 19.6 mph N/A Thunderstorm Overcast
5:55 PM 64.4 °F - 55.4 °F 73% 29.78 in 10.0 mi South 15.0 mph - N/A Thunderstorm Thunderstorm
6:15 PM 64.4 °F - 55.4 °F 73% 29.80 in 7.0 mi South 20.7 mph 27.6 mph 0.02 in Rain , Thunderstorm Light Thunderstorms and Rain
6:35 PM 64.4 °F - 55.4 °F 73% 29.81 in 10.0 mi South 18.4 mph - 0.02 in Rain , Thunderstorm Light Thunderstorms and Rain
6:55 PM 64.4 °F - 55.4 °F 73% 29.82 in 10.0 mi SSW 13.8 mph - 0.02 in Rain , Thunderstorm Light Thunderstorms and Rain
7:15 PM 66.2 °F - 55.4 °F 68% 29.84 in 10.0 mi SSW 21.9 mph 28.8 mph N/A   Overcast
7:35 PM 64.4 °F - 55.4 °F 73% 29.83 in 10.0 mi South 15.0 mph 23.0 mph N/A Rain Rain
7:55 PM 62.6 °F - 57.2 °F 82% 29.85 in 7.0 mi SSW 18.4 mph - 0.04 in Rain , Thunderstorm Heavy Thunderstorms and Rain
8:15 PM 62.6 °F - 59.0 °F 88% 29.86 in 10.0 mi South 16.1 mph 19.6 mph 0.03 in Rain , Thunderstorm Light Thunderstorms and Rain
8:35 PM 62.6 °F - 57.2 °F 82% 29.86 in 10.0 mi South 18.4 mph 26.5 mph 0.04 in Rain , Thunderstorm Light Thunderstorms and Rain
8:55 PM 60.8 °F - 57.2 °F 88% 29.85 in 10.0 mi South 17.3 mph 24.2 mph 0.04 in   Scattered Clouds
9:15 PM 60.8 °F - 57.2 °F 88% 29.87 in 10.0 mi South 13.8 mph - N/A   Scattered Clouds
9:35 PM 60.8 °F - 57.2 °F 88% 29.87 in 10.0 mi South 11.5 mph 17.3 mph N/A   Mostly Cloudy
9:55 PM 60.8 °F - 57.2 °F 88% 29.88 in 10.0 mi South 12.7 mph - N/A Thunderstorm Mostly Cloudy
10:15 PM 60.8 °F - 57.2 °F 88% 29.89 in 10.0 mi South 12.7 mph 17.3 mph N/A   Mostly Cloudy
10:35 PM 60.8 °F - 57.2 °F 88% 29.89 in 10.0 mi South 13.8 mph 20.7 mph N/A   Mostly Cloudy
10:55 PM 60.8 °F - 57.2 °F 88% 29.89 in 10.0 mi South 12.7 mph - N/A   Mostly Cloudy
11:15 PM 60.8 °F - 57.2 °F 88% 29.89 in 10.0 mi South 16.1 mph 20.7 mph N/A   Scattered Clouds
11:35 PM 60.8 °F - 57.2 °F 88% 29.90 in 10.0 mi South 13.8 mph 18.4 mph N/A   Scattered Clouds
11:55 PM 60.8 °F - 57.2 °F 88% 29.89 in 10.0 mi South 12.7 mph 16.1 mph N/A   Scattered Clouds